GW3437 Weather Reports


Display with metric or nautical units.
time (UTC)temp
F
wind
direction
speed
MPH
gust
MPH
rain 1hr
in
rain 24hr
in
rain mn
in
humidity
%
barometer
mb
20260510141426 59 141 0.0 0.0 0.00 0.88 0.88 99 1017.7
20260510140923 59 80 0.0 0.0 0.00 0.88 0.88 99 1017.9
20260510140419 59 97 0.0 1.0 0.00 0.88 0.88 99 1017.8
20260510135913 59 160 0.0 0.0 0.00 0.88 0.88 99 1017.7
20260510135410 59 123 0.0 1.0 0.00 0.88 0.88 99 1017.3
20260510134906 59 65 1.0 3.0 0.00 0.88 0.88 99 1017.3
20260510134403 59 57 2.0 4.0 0.00 0.88 0.88 99 1017.5
20260510133854 59 78 2.0 4.0 0.07 0.88 0.88 99 1017.9
20260510133350 59 67 2.0 3.0 0.00 0.87 0.87 99 1018.0
20260510132846 59 78 2.0 3.0 0.00 0.87 0.87 99 1018.3
20260510132344 59 116 0.0 2.0 0.00 0.87 0.87 99 1018.5
20260510131840 59 64 0.0 2.0 0.00 0.87 0.87 99 1018.9
20260510131338 59 67 0.0 0.0 0.05 0.87 0.87 99 1019.0
20260510130834 59 80 1.0 3.0 0.12 0.87 0.87 99 1018.4
20260510130332 59 59 1.0 3.0 0.07 0.86 0.86 99 1018.3
20260510125828 59 52 4.0 9.0 0.12 0.85 0.85 99 1018.2
20260510125324 59 60 3.0 4.0 0.12 0.85 0.85 99 1018.4
20260510124821 59 346 2.0 4.0 0.19 0.83 0.83 99 1018.2
20260510124318 59 68 2.0 7.0 0.24 0.83 0.83 99 1018.3
20260510123814 59 40 5.0 10.0 0.05 0.80 0.80 99 1018.1
20260510123309 59 29 3.0 7.0 0.24 0.79 0.79 99 1018.3
20260510122806 59 50 2.0 10.0 0.35 0.78 0.78 99 1018.0
20260510122306 59 49 6.0 8.0 0.31 0.75 0.75 99 1017.7
20260510121759 59 30 6.0 9.0 0.31 0.71 0.71 99 1018.0
20260510121256 59 121 0.0 6.0 0.47 0.70 0.70 99 1018.6
20260510120753 59 80 5.0 6.0 0.42 0.66 0.66 99 1018.2
20260510120250 59 30 1.0 3.0 0.50 0.62 0.62 99 1018.5
20260510115745 59 60 2.0 9.0 0.85 0.58 0.58 99 1018.6
20260510115243 59 61 1.0 6.0 0.94 0.52 0.52 99 1018.2
20260510114738 59 352 3.0 4.0 0.52 0.43 0.43 99 1018.3
20260510114235 59 82 0.0 6.0 0.19 0.36 0.36 99 1018.1
20260510113725 59 93 0.0 8.0 0.12 0.34 0.34 99 1017.5
20260510113222 59 132 2.0 11.0 0.12 0.33 0.33 99 1017.2
20260510112718 59 39 4.0 8.0 0.14 0.32 0.32 99 1016.8
20260510112215 59 100 1.0 7.0 0.07 0.31 0.31 99 1016.6
20260510111711 59 351 4.0 6.0 0.00 0.30 0.30 99 1016.3
20260510111208 59 27 2.0 7.0 0.00 0.30 0.30 99 1015.8
20260510110702 59 108 2.0 3.0 0.00 0.30 0.30 99 1015.2
20260510110200 60 23 1.0 3.0 0.00 0.30 0.30 99 1015.1
20260510105655 60 336 0.0 3.0 0.00 0.30 0.30 99 1014.7
20260510105155 60 96 0.0 2.0 0.00 0.30 0.30 99 1013.9
20260510104652 60 16 0.0 2.0 0.00 0.30 0.30 99 1013.8
20260510104149 60 65 1.0 3.0 0.00 0.30 0.30 99 1014.0
20260510103646 60 127 0.0 1.0 0.12 0.30 0.30 99 1013.4
20260510103143 60 58 1.0 2.0 0.52 0.30 0.30 99 1013.2
20260510102632 60 81 2.0 3.0 0.54 0.27 0.27 98 1013.3
20260510102129 61 238 1.0 4.0 0.31 0.20 0.20 97 1013.8
20260510101626 61 82 0.0 2.0 0.31 0.18 0.18 97 1013.0
20260510101124 61 127 0.0 0.0 0.42 0.14 0.14 96 1012.9
20260510100620 61 185 0.0 1.0 0.42 0.12 0.12 96 1013.6
20260510100118 61 120 0.0 0.0 0.31 0.07 0.07 95 1013.4
20260510095613 61 351 0.0 1.0 0.24 0.05 0.05 95 1013.4
20260510095114 61 71 2.0 2.0 0.05 0.02 0.02 95 1012.4
20260510094612 61 334 2.0 4.0 0.00 0.01 0.01 95 1013.1
20260510094108 61 170 0.0 0.0 0.00 0.01 0.01 95 1012.7
20260510093605 61 127 0.0 0.0 0.00 0.01 0.01 94 1012.7
20260510093102 61 137 0.0 0.0 0.00 0.01 0.01 93 1012.6
20260510092558 61 168 0.0 0.0 0.00 0.01 0.01 93 1012.8
20260510092058 61 165 1.0 2.0 0.00 0.01 0.01 93 1012.9
20260510091555 61 162 0.0 1.0 0.00 0.01 0.01 93 1013.0
20260510091051 61 139 0.0 0.0 0.00 0.01 0.01 92 1012.8
20260510090548 61 101 0.0 0.0 0.00 0.01 0.01 92 1012.7
20260510090044 61 106 0.0 0.0 0.00 0.01 0.01 91 1012.8
20260510085539 61 72 1.0 2.0 0.00 0.01 0.01 91 1012.5
20260510085035 62 180 0.0 1.0 0.07 0.01 0.01 91 1012.8
20260510084532 62 107 0.0 2.0 0.07 0.01 0.01 90 1012.7
20260510084029 62 45 1.0 2.0 0.00 0.00 0.00 89 1013.0
20260510083525 62 181 5.0 6.0 0.00 0.00 0.00 89 1013.0
20260510083021 62 173 1.0 2.0 0.00 0.00 0.00 89 1013.1
20260510082518 62 61 2.0 3.0 0.00 0.00 0.00 89 1013.1
20260510082018 62 160 1.0 3.0 0.00 0.00 0.00 88 1013.1
20260510081514 62 150 0.0 0.0 0.00 0.00 0.00 88 1013.0
20260510081010 62 158 1.0 6.0 0.00 0.00 0.00 88 1013.1
20260510080509 62 230 2.0 4.0 0.00 0.00 0.00 88 1013.1
20260510080006 62 193 1.0 3.0 0.00 0.00 0.00 87 1013.0
20260510075504 62 216 2.0 2.0 0.00 0.00 0.00 87 1013.0
20260510075000 62 236 1.0 1.0 0.00 0.00 0.00 87 1013.0
20260510074458 62 222 1.0 3.0 0.00 0.00 0.00 87 1012.9
20260510073953 62 176 2.0 3.0 0.00 0.00 0.00 87 1013.1
20260510073449 62 133 1.0 3.0 0.00 0.00 0.00 86 1013.2
20260510072946 62 117 1.0 2.0 0.00 0.00 0.00 87 1012.9
20260510072443 62 184 1.0 2.0 0.00 0.00 0.00 87 1013.3
20260510071938 62 131 0.0 4.0 0.00 0.00 0.00 86 1012.9
20260510071435 62 32 1.0 4.0 0.00 0.00 0.00 86 1012.7
20260510070933 62 99 2.0 4.0 0.00 0.00 0.00 87 1012.9
20260510070430 61 51 1.0 2.0 0.00 0.00 0.00 87 1012.7
20260510065926 61 111 2.0 8.0 0.00 0.00 0.00 88 1013.1
20260510065423 61 103 1.0 1.0 0.00 0.00 0.00 88 1013.3
20260510064919 61 127 1.0 7.0 0.00 0.00 0.00 89 1013.6
20260510064417 61 63 3.0 6.0 0.00 0.00 0.00 89 1014.0
20260510063913 61 81 0.0 1.0 0.00 0.00 0.00 89 1014.4
20260510063409 61 84 0.0 1.0 0.00 0.00 0.00 89 1014.6
20260510062907 61 149 0.0 3.0 0.00 0.00 0.00 89 1014.8
20260510062402 61 85 1.0 2.0 0.00 0.00 0.00 89 1015.2
20260510061858 61 39 0.0 1.0 0.00 0.00 0.00 89 1015.5
20260510061354 61 81 1.0 4.0 0.00 0.00 0.00 88 1015.6
20260510060850 61 118 0.0 2.0 0.00 0.00 0.00 88 1015.6
20260510060347 61 151 1.0 4.0 0.00 0.00 0.00 88 1015.5
20260510055843 61 71 6.0 10.0 0.00 0.00 0.00 88 1015.3
20260510055343 60 41 6.0 8.0 0.00 0.00 0.00 92 1015.3
20260510054837 60 72 6.0 9.0 0.00 0.00 0.00 99 1015.3
20260510054333 59 120 4.0 9.0 0.00 0.00 0.00 99 1015.0
20260510053827 59 69 5.0 13.0 0.00 0.00 0.00 99 1014.7
20260510053323 59 64 7.0 14.0 0.00 0.00 0.00 99 1014.8
20260510052820 59 12 3.0 7.0 0.00 0.00 0.00 99 1014.3
20260510052316 60 35 3.0 6.0 0.00 0.00 0.00 99 1014.6
20260510051812 60 68 3.0 7.0 0.00 0.00 0.00 99 1015.0
20260510051309 61 288 2.0 6.0 0.00 0.00 0.00 99 1014.9
20260510050805 61 87 4.0 11.0 0.00 0.00 0.00 99 1014.1
20260510050257 61 70 2.0 7.0 0.00 0.00 0.00 99 1013.9
20260510045753 61 96 2.0 3.0 0.00 0.24 0.24 99 1014.2
20260510045244 61 38 2.0 6.0 0.00 0.24 0.24 98 1013.8
20260510044742 62 95 1.0 2.0 0.00 0.24 0.24 98 1013.7
20260510044239 62 43 3.0 4.0 0.00 0.24 0.24 97 1013.0
20260510043734 62 98 2.0 3.0 0.05 0.24 0.24 94 1013.9
20260510043231 63 50 0.0 2.0 0.17 0.24 0.24 93 1014.4
20260510042728 63 78 2.0 7.0 0.54 0.23 0.23 91 1014.7
20260510042224 64 50 3.0 7.0 0.83 0.20 0.20 89 1015.4
20260510041721 65 61 3.0 6.0 0.54 0.13 0.13 86 1016.1
20260510041218 66 338 6.0 10.0 0.31 0.06 0.06 80 1016.6
20260510040715 68 344 5.0 14.0 0.24 0.04 0.04 77 1016.3
20260510040212 71 354 4.0 10.0 0.07 0.01 0.01 68 1015.5
20260510035707 73 182 2.0 6.0 0.00 0.00 0.00 59 1015.1
20260510035204 74 50 1.0 3.0 0.00 0.00 0.00 52 1014.0
20260510034659 74 101 1.0 4.0 0.00 0.00 0.00 51 1013.4
20260510034157 75 52 3.0 4.0 0.00 0.00 0.00 50 1012.6
20260510033653 75 69 2.0 7.0 0.00 0.00 0.00 50 1011.9
20260510033151 75 123 1.0 4.0 0.00 0.00 0.00 50 1011.4
20260510032647 75 84 3.0 6.0 0.00 0.00 0.00 50 1010.6
20260510032143 75 74 2.0 4.0 0.00 0.00 0.00 50 1010.2
20260510031637 75 32 1.0 3.0 0.00 0.00 0.00 50 1010.1
20260510031129 75 21 1.0 4.0 0.00 0.00 0.00 50 1009.7
20260510030623 75 138 1.0 7.0 0.00 0.00 0.00 50 1009.9
20260510030121 76 60 2.0 3.0 0.00 0.00 0.00 50 1010.0
20260510025618 76 130 0.0 3.0 0.00 0.00 0.00 49 1010.1
20260510025115 77 20 4.0 6.0 0.00 0.00 0.00 49 1010.4
20260510024612 77 74 2.0 6.0 0.00 0.00 0.00 48 1010.4
20260510024108 77 85 0.0 4.0 0.00 0.00 0.00 48 1010.2
20260510023604 77 161 0.0 2.0 0.00 0.00 0.00 48 1010.5
20260510023102 77 106 1.0 1.0 0.00 0.00 0.00 48 1010.4
20260510022601 77 181 0.0 1.0 0.00 0.00 0.00 48 1010.2
20260510022056 77 110 0.0 1.0 0.00 0.00 0.00 48 1010.3
20260510021552 77 69 0.0 1.0 0.00 0.00 0.00 49 1010.0
20260510021050 77 140 0.0 1.0 0.00 0.00 0.00 49 1009.9
20260510020544 77 163 0.0 2.0 0.00 0.00 0.00 49 1009.7
20260510020040 77 150 0.0 2.0 0.00 0.00 0.00 48 1009.4
20260510015536 77 183 0.0 6.0 0.00 0.00 0.00 48 1009.2
20260510015032 77 150 0.0 1.0 0.00 0.00 0.00 48 1008.8
20260510014529 77 177 0.0 2.0 0.00 0.00 0.00 47 1008.6
20260510014026 78 109 2.0 2.0 0.00 0.00 0.00 46 1008.5
20260510013520 78 60 1.0 2.0 0.00 0.00 0.00 46 1008.8
20260510013016 78 93 0.0 1.0 0.00 0.00 0.00 45 1008.5
20260510012511 78 159 0.0 1.0 0.00 0.00 0.00 45 1008.8
20260510012007 78 174 0.0 0.0 0.00 0.00 0.00 45 1008.8
20260510011501 79 189 0.0 2.0 0.00 0.00 0.00 44 1008.7
20260510010957 79 144 0.0 1.0 0.00 0.00 0.00 44 1008.6
20260510010455 79 143 0.0 3.0 0.00 0.00 0.00 43 1008.5
20260510005951 80 186 0.0 1.0 0.00 0.00 0.00 43 1008.6
20260510005447 80 207 2.0 3.0 0.00 0.00 0.00 43 1008.7
20260510004945 80 176 0.0 1.0 0.00 0.00 0.00 43 1008.6
20260510004442 80 139 0.0 1.0 0.00 0.00 0.00 43 1009.0
20260510003940 80 41 0.0 3.0 0.00 0.00 0.00 42 1009.0
20260510003437 81 149 0.0 1.0 0.00 0.00 0.00 43 1009.0
20260510002937 81 174 0.0 2.0 0.00 0.00 0.00 42 1008.7
20260510002433 82 154 3.0 3.0 0.00 0.00 0.00 42 1008.6
20260510001929 82 148 0.0 2.0 0.00 0.00 0.00 43 1008.6
20260510001427 82 203 2.0 2.0 0.00 0.00 0.00 42 1008.8
20260510000925 82 193 1.0 3.0 0.00 0.00 0.00 42 1008.8
20260510000421 82 71 0.0 3.0 0.00 0.00 0.00 41 1008.8
20260509235917 83 184 1.0 2.0 0.00 0.00 0.00 41 1008.8
20260509235409 83 230 2.0 3.0 0.00 0.00 0.00 39 1008.7
20260509234904 84 168 1.0 3.0 0.00 0.00 0.00 39 1008.8
20260509234402 84 220 2.0 4.0 0.00 0.00 0.00 39 1008.9
20260509233900 85 198 1.0 3.0 0.00 0.00 0.00 38 1009.0
20260509233357 85 181 2.0 10.0 0.00 0.00 0.00 38 1008.9
20260509232852 85 218 6.0 9.0 0.00 0.00 0.00 37 1008.8
20260509232351 86 311 1.0 7.0 0.00 0.00 0.00 36 1008.9
20260509231846 86 202 3.0 4.0 0.00 0.00 0.00 38 1008.8
20260509231344 86 273 2.0 2.0 0.00 0.00 0.00 34 1008.9
20260509230842 87 56 0.0 4.0 0.00 0.00 0.00 33 1009.0
20260509230338 87 219 0.0 4.0 0.00 0.00 0.00 33 1009.0
20260509225833 87 61 2.0 6.0 0.00 0.00 0.00 33 1009.0
20260509225331 86 95 1.0 7.0 0.00 0.00 0.00 33 1009.1
20260509224826 86 145 2.0 7.0 0.00 0.00 0.00 33 1009.2
20260509224322 87 47 1.0 4.0 0.00 0.00 0.00 33 1009.3
20260509223820 87 195 0.0 9.0 0.00 0.00 0.00 34 1009.3
20260509223316 88 180 1.0 6.0 0.00 0.00 0.00 33 1009.4
20260509222813 87 164 1.0 7.0 0.00 0.00 0.00 34 1009.5
20260509222308 87 189 5.0 7.0 0.00 0.00 0.00 33 1009.7
20260509221804 87 61 2.0 6.0 0.00 0.00 0.00 33 1009.4
20260509221302 88 68 1.0 3.0 0.00 0.00 0.00 32 1009.6
20260509220757 89 293 1.0 4.0 0.00 0.00 0.00 31 1009.7
20260509220253 88 203 1.0 3.0 0.00 0.00 0.00 30 1009.5
20260509215748 87 40 2.0 3.0 0.00 0.00 0.00 30 1009.5
20260509215245 87 238 4.0 6.0 0.00 0.00 0.00 32 1009.8
20260509214743 87 182 2.0 8.0 0.00 0.00 0.00 33 1009.7
20260509214240 87 158 2.0 10.0 0.00 0.00 0.00 34 1009.7
20260509213737 87 159 0.0 4.0 0.00 0.00 0.00 32 1009.4
20260509213232 86 79 3.0 4.0 0.00 0.00 0.00 33 1009.6
20260509212730 88 145 1.0 9.0 0.00 0.00 0.00 33 1009.8
20260509212227 87 177 4.0 6.0 0.00 0.00 0.00 31 1009.9
20260509211723 89 69 4.0 4.0 0.00 0.00 0.00 32 1009.9
20260509211219 89 259 1.0 1.0 0.00 0.00 0.00 32 1010.1
20260509210716 89 300 1.0 4.0 0.00 0.00 0.00 32 1010.2
20260509210213 87 155 1.0 2.0 0.00 0.00 0.00 33 1010.1
20260509205713 88 52 2.0 3.0 0.00 0.00 0.00 31 1010.2
20260509205213 87 83 1.0 2.0 0.00 0.00 0.00 33 1010.2
20260509204709 88 87 1.0 3.0 0.00 0.00 0.00 32 1010.2
20260509204206 88 129 1.0 3.0 0.00 0.00 0.00 33 1010.3
20260509203701 87 198 1.0 3.0 0.00 0.00 0.00 34 1010.4
20260509203200 89 189 2.0 6.0 0.00 0.00 0.00 31 1010.3
20260509202655 88 166 0.0 4.0 0.00 0.00 0.00 32 1010.4
20260509202150 89 148 1.0 4.0 0.00 0.00 0.00 32 1010.6
20260509201646 87 42 1.0 6.0 0.00 0.00 0.00 32 1010.5
20260509201144 88 147 1.0 3.0 0.00 0.00 0.00 32 1010.6
20260509200639 86 211 1.0 2.0 0.00 0.00 0.00 32 1010.6
20260509200134 87 67 2.0 6.0 0.00 0.00 0.00 32 1010.8
20260509195630 87 155 2.0 4.0 0.00 0.00 0.00 31 1010.8
20260509195126 87 122 2.0 4.0 0.00 0.00 0.00 31 1011.0
20260509194625 85 86 1.0 4.0 0.00 0.00 0.00 33 1010.8
20260509194123 85 89 0.0 6.0 0.00 0.00 0.00 32 1011.0
20260509193618 85 68 1.0 3.0 0.00 0.00 0.00 33 1011.1
20260509193114 86 51 3.0 6.0 0.00 0.00 0.00 33 1010.9
20260509192611 86 47 2.0 6.0 0.00 0.00 0.00 34 1011.1
20260509192106 85 89 1.0 4.0 0.00 0.00 0.00 36 1011.1
20260509191601 86 220 1.0 2.0 0.00 0.00 0.00 33 1011.2
20260509191057 85 93 1.0 2.0 0.00 0.00 0.00 33 1011.6
20260509190554 85 117 1.0 2.0 0.00 0.00 0.00 34 1011.4
20260509190052 86 65 2.0 7.0 0.00 0.00 0.00 34 1011.4
20260509185549 87 216 1.0 3.0 0.00 0.00 0.00 32 1011.4
20260509185045 86 26 0.0 1.0 0.00 0.00 0.00 31 1011.6
20260509184544 87 72 2.0 4.0 0.00 0.00 0.00 33 1011.7
20260509184040 86 181 0.0 3.0 0.00 0.00 0.00 32 1011.7
20260509183535 86 107 1.0 4.0 0.00 0.00 0.00 29 1011.7
20260509183031 86 77 0.0 3.0 0.00 0.00 0.00 32 1011.8
20260509182527 85 140 0.0 0.0 0.00 0.00 0.00 34 1011.9
20260509182025 84 191 4.0 4.0 0.00 0.00 0.00 36 1011.8
20260509181523 85 214 1.0 2.0 0.00 0.00 0.00 35 1011.9
20260509181020 84 46 1.0 3.0 0.00 0.00 0.00 37 1012.0
20260509180515 85 167 0.0 4.0 0.00 0.00 0.00 34 1012.1
20260509180013 85 183 1.0 2.0 0.00 0.00 0.00 34 1011.9
20260509175508 86 351 1.0 6.0 0.00 0.00 0.00 32 1012.2
20260509175005 85 143 0.0 3.0 0.00 0.00 0.00 37 1012.4
20260509174501 83 60 1.0 3.0 0.00 0.00 0.00 40 1012.4
20260509173956 85 193 2.0 3.0 0.00 0.00 0.00 37 1012.5
20260509173451 83 89 1.0 6.0 0.00 0.00 0.00 35 1012.5
20260509172948 84 182 2.0 3.0 0.00 0.00 0.00 33 1012.8
20260509172445 83 215 5.0 6.0 0.00 0.00 0.00 35 1012.8
20260509171940 83 168 2.0 4.0 0.00 0.00 0.00 35 1012.7
20260509171437 83 214 2.0 3.0 0.00 0.00 0.00 33 1012.7
20260509170933 81 219 1.0 3.0 0.00 0.00 0.00 43 1012.6
20260509170429 83 116 0.0 3.0 0.00 0.00 0.00 40 1012.7
20260509165925 81 241 1.0 2.0 0.00 0.00 0.00 45 1013.0
20260509165419 82 198 2.0 4.0 0.00 0.00 0.00 46 1012.8
20260509164914 80 157 1.0 2.0 0.00 0.00 0.00 49 1012.8
20260509164411 80 115 2.0 4.0 0.00 0.00 0.00 49 1012.9
20260509163907 79 125 1.0 4.0 0.00 0.00 0.00 50 1013.0
20260509163404 78 196 1.0 3.0 0.00 0.00 0.00 55 1013.0
20260509162903 79 62 2.0 4.0 0.00 0.00 0.00 58 1013.1
20260509162402 78 157 1.0 2.0 0.00 0.00 0.00 59 1013.0
20260509161858 78 160 1.0 3.0 0.00 0.00 0.00 60 1013.2
20260509161354 77 104 1.0 1.0 0.00 0.00 0.00 60 1013.1
20260509160850 76 129 0.0 1.0 0.00 0.00 0.00 62 1013.2
20260509160346 78 208 2.0 3.0 0.00 0.00 0.00 58 1013.1
20260509155841 80 263 0.0 1.0 0.00 0.00 0.00 58 1013.1
20260509155338 78 66 1.0 3.0 0.00 0.00 0.00 62 1013.0
20260509154834 75 113 0.0 2.0 0.00 0.00 0.00 66 1013.0
20260509154331 74 153 1.0 3.0 0.00 0.00 0.00 65 1013.0
20260509153828 74 152 0.0 2.0 0.00 0.00 0.00 62 1013.1
20260509153324 74 193 2.0 3.0 0.00 0.00 0.00 63 1013.0
20260509152822 74 263 2.0 3.0 0.00 0.00 0.00 60 1012.8
20260509152317 74 65 1.0 1.0 0.00 0.00 0.00 63 1012.7
20260509151815 74 144 0.0 0.0 0.00 0.00 0.00 67 1012.6
20260509151311 73 138 0.0 0.0 0.00 0.00 0.00 64 1013.0
20260509150810 75 72 0.0 1.0 0.00 0.00 0.00 68 1012.8
20260509150307 75 96 0.0 0.0 0.00 0.00 0.00 68 1012.8
20260509145803 73 104 0.0 1.0 0.00 0.00 0.00 72 1012.8
20260509145258 73 105 0.0 2.0 0.00 0.00 0.00 74 1012.8
20260509144755 72 104 0.0 2.0 0.00 0.00 0.00 74 1012.6
20260509144252 71 109 0.0 1.0 0.00 0.00 0.00 78 1012.4
20260509143749 70 63 2.0 2.0 0.00 0.00 0.00 79 1012.8
20260509143246 69 92 1.0 1.0 0.00 0.00 0.00 81 1012.7
20260509142742 68 122 0.0 1.0 0.00 0.00 0.00 81 1012.9
20260509142238 68 66 0.0 0.0 0.00 0.00 0.00 81 1013.0
20260509141734 67 11 1.0 2.0 0.00 0.00 0.00 84 1013.0